Location: Bu�n Treun
(12.1333°N, 108.3167°E)
Time: 00:32:24
(UTC+00:00)

Cosmos 1455 Rocket - Pass Details

Date: 13 July 2020
Orbit: 606 x 629 km, 82.5° (Epoch: 03 August)

Event Time Altitude Azimuth Distance (km) Brightness Sun altitude
Rises 21:56:23 0° 176° (S) 2,852 6.3 -8.2°
Reaches altitude 10° 21:58:37 10° 172° (S) 1,948 5.5 -7.7°
Maximum altitude 22:02:50 57° 93° (E) 712 3.8 -6.8°
Drops below altitude 10° 22:07:04 10° 15° (NNE) 1,947 6.2 -5.9°
Sets 22:09:18 0° 11° (N) 2,852 7.0 -5.4°
